User: anonymous   Login
Location: Beutels
(47.8767°N, 9.8584°E)
Time: 03:13:57
(UTC+00:00)
Language:

Cosmos 1500 Rocket - Orbit

View from above orbital plane
View from above orbital plane
View from above satellite
View from above satellite

Ground track
Ground track

The orbit data is extracted from the following two-line orbital elements,

1 14373U 83099B   25194.47548396  .00000358  00000-0  38181-4 0  9995
2 14373  82.5390   6.9799 0018667 206.2851 153.7420 14.85908212237092
Epoch (UTC): 13 July 2025 11:24:41
Eccentricity: 0.0018667
inclination: 82.5390°
perigee height: 597 km
apogee height: 624 km
right ascension of ascending node: 6.9799°
argument of perigee: 206.2851°
revolutions per day: 14.85908212
mean anomaly at epoch: 153.7420°
orbit number at epoch: 23709

The dashed part of the orbit path shows where the satellite is in the earth's shadow,  

DLR